Alice Springs, Australia

5:21 PM ACST on December 11, 2019 (GMT +0930)
Alice Springs

Weather History for YBAS - August, 2019

Change the Weather History Date:

Sunday, August 11, 2019

  Actual Average Record
Temperature  
Mean Temperature 51 °F -  
Max Temperature 66 °F 75 °F 89 °F (2003)
Min Temperature 36 °F 46 °F 28 °F (2012)
Degree Days  
Heating Degree Days 14    
Growing Degree Days 1 (Base 50)    
Moisture  
Dew Point 32 °F    
Average Humidity 47    
Maximum Humidity 81    
Minimum Humidity 17    
Precipitation  
Precipitation 0.00 in 0.01 in - ()
Sea Level Pressure  
Sea Level Pressure 30.24 in    
Wind  
Wind Speed 5 mph ()    
Max Wind Speed 13 mph    
Max Gust Speed -    
Visibility 6.2 miles    
Events      
Averages and records for this station are not official NWS values.
T = Trace of Precipitation, MM = Missing Value Source: Averaged Metar Reports

Daily Weather History Graph

Daily Weather History Graph

Search for Another Location

Airport or City:

Astronomy

Aug. 11, 2019 Rise Set
Actual Time 7:03 AM ACST 6:15 PM ACST
Civil Twilight 6:40 AM ACST 6:39 PM ACST
Nautical Twilight 6:13 AM ACST 7:06 PM ACST
Astronomical Twilight 5:46 AM ACST 7:32 PM ACST
Moon 2:37 PM ACST 3:33 AM ACST
Length of Visible Light 11h 58m
Length of Day
11h 11m
Waxing Gibbous, 82% of the Moon is Illuminated
Aug 11
Waxing Gibbous
Aug 15
Full
Aug 24
Last Quarter
Aug 30
New
Sep 6
First Quarter

Hourly Weather History & Observations

Time (ACST) Temp. Windchill Dew Point Humidity Pressure Visibility Wind Dir Wind Speed Gust Speed Precip Events Conditions
12:00 AM 47 °F - 35 °F 51% 30.26 in - ESE 3.5 mph - -   Clear
12:00 AM 46.4 °F 45.2 °F 35.6 °F 66% 30.27 in 6.2 mi ESE 3.5 mph - N/A   Unknown
12:30 AM 45 °F - 33 °F 52% 30.25 in - ESE 3.5 mph - -  
12:30 AM 44.6 °F 43.1 °F 33.8 °F 66% 30.27 in 6.2 mi ESE 3.5 mph - N/A   Unknown
1:00 AM 44.6 °F - 30.2 °F 57% 30.27 in 6.2 mi SSE 2.3 mph - N/A   Unknown
1:30 AM 42.8 °F 38.0 °F 32.0 °F 66% 30.24 in 6.2 mi SSE 8.1 mph - N/A   Unknown
2:00 AM 41.0 °F - 32.0 °F 70% 30.24 in 6.2 mi SSE 2.3 mph - N/A   Unknown
2:30 AM 40 °F - 30 °F 57% 30.25 in - NNW 4.6 mph - -  
2:30 AM 39.2 °F 35.9 °F 30.2 °F 70% 30.24 in 6.2 mi NNW 4.6 mph - N/A   Unknown
3:00 AM 43 °F - 34 °F 60% 30.25 in - NNW 4.6 mph - -   Clear
3:00 AM 42.8 °F 40.1 °F 33.8 °F 70% 30.24 in 6.2 mi NNW 4.6 mph - N/A   Unknown
3:30 AM 41 °F - 31 °F 58% 30.23 in - Calm Calm - -  
3:30 AM 41.0 °F - 32.0 °F 70% 30.24 in 6.2 mi Calm Calm - N/A   Unknown
4:00 AM 39.2 °F 35.9 °F 30.2 °F 70% 30.24 in 6.2 mi NNW 4.6 mph - N/A   Unknown
4:30 AM 39.2 °F 35.9 °F 30.2 °F 70% 30.24 in 6.2 mi West 4.6 mph - N/A   Unknown
5:30 AM 38 °F - 32 °F 71% 30.25 in - SSW 2.3 mph - -  
5:30 AM 37.4 °F - 32.0 °F 81% 30.24 in 6.2 mi SSW 2.3 mph - N/A   Unknown
6:00 AM 37 °F - 31 °F 69% 30.25 in - WSW 3.5 mph - -   Clear
6:30 AM 37 °F - 30 °F 67% 30.25 in - WSW 4.6 mph - -  
6:30 AM 37.4 °F 33.8 °F 30.2 °F 75% 30.27 in 6.2 mi WSW 4.6 mph - N/A   Unknown
7:00 AM 37.4 °F 33.8 °F 32.0 °F 81% 30.27 in 6.2 mi WNW 4.6 mph - N/A   Unknown
7:30 AM 37.4 °F 33.8 °F 30.2 °F 75% 30.27 in 6.2 mi WNW 4.6 mph - N/A   Unknown
8:00 AM 42.8 °F 41.1 °F 33.8 °F 70% 30.30 in 6.2 mi WNW 3.5 mph - N/A   Unknown
8:30 AM 46 °F - 35 °F 55% 30.29 in - WNW 1.2 mph - -  
8:30 AM 46.4 °F - 35.6 °F 66% 30.30 in 6.2 mi WNW 1.2 mph - N/A   Unknown
9:00 AM 50 °F - 35 °F 46% 30.30 in - East 4.6 mph - -   Clear
9:30 AM 53 °F - 37 °F 43% 30.31 in - East 8.1 mph - -  
9:30 AM 53.6 °F - 37.4 °F 54% 30.33 in 6.2 mi East 8.1 mph - N/A   Unknown
10:00 AM 55.4 °F - 37.4 °F 51% 30.33 in 6.2 mi ESE 10.4 mph - N/A   Unknown
10:30 AM 57.2 °F - 37.4 °F 48% 30.33 in 6.2 mi ESE 9.2 mph - N/A   Unknown
11:00 AM 57.2 °F - 37.4 °F 48% 30.30 in 6.2 mi SSE 11.5 mph - N/A   Unknown
11:30 AM 60 °F - 36 °F 28% 30.29 in - East 12.7 mph - -  
11:30 AM 59.0 °F - 35.6 °F 42% 30.30 in 6.2 mi East 12.7 mph - N/A   Unknown
12:00 PM 60 °F - 35 °F 27% 30.28 in - SE 9.2 mph - -   Clear
12:30 PM 61 °F - 35 °F 25% 30.27 in - SSE 10.4 mph - -  
12:30 PM 60.8 °F - 33.8 °F 36% 30.27 in 6.2 mi SSE 10.4 mph - N/A   Unknown
1:00 PM 60.8 °F - 33.8 °F 36% 30.27 in 6.2 mi SE 9.2 mph - N/A   Unknown
1:30 PM 62.6 °F - 33.8 °F 34% 30.24 in 6.2 mi SSE 8.1 mph - N/A   Unknown
2:00 PM 62.6 °F - 32.0 °F 32% 30.21 in 6.2 mi South 9.2 mph - N/A   Unknown
2:30 PM 64 °F - 33 °F 20% 30.19 in - SE 10.4 mph - -  
2:30 PM 64.4 °F - 32.0 °F 30% 30.21 in 6.2 mi SE 10.4 mph - N/A   Unknown
3:00 PM 64 °F - 32 °F 19% 30.17 in - SE 10.4 mph - -   Clear
3:00 PM 64.4 °F - 32.0 °F 30% 30.18 in 6.2 mi SE 10.4 mph - N/A   Unknown
3:30 PM 65 °F - 33 °F 19% 30.16 in - ESE 10.4 mph - -  
3:30 PM 64.4 °F - 32.0 °F 30% 30.18 in 6.2 mi ESE 10.4 mph - N/A   Unknown
4:00 PM 64.4 °F - 32.0 °F 30% 30.15 in 6.2 mi East 9.2 mph - N/A   Unknown
4:30 PM 66.2 °F - 32.0 °F 28% 30.15 in 6.2 mi ESE 11.5 mph - N/A   Unknown
5:00 PM 64.4 °F - 30.2 °F 28% 30.15 in 6.2 mi SE 11.5 mph - N/A   Unknown
5:30 PM 64 °F - 30 °F 17% 30.17 in - SE 9.2 mph - -  
5:30 PM 64.4 °F - 30.2 °F 28% 30.18 in 6.2 mi SE 9.2 mph - N/A   Unknown
6:00 PM 63 °F - 31 °F 18% 30.18 in - SE 9.2 mph - -   Clear
6:00 PM 62.6 °F - 30.2 °F 30% 30.18 in 6.2 mi SE 9.2 mph - N/A   Unknown
6:30 PM 61 °F - 31 °F 20% 30.18 in - SE 8.1 mph - -  
6:30 PM 60.8 °F - 30.2 °F 31% 30.18 in 6.2 mi SE 8.1 mph - N/A   Unknown
7:00 PM 59.0 °F - 30.2 °F 34% 30.21 in 6.2 mi SE 8.1 mph - N/A   Unknown
7:30 PM 55.4 °F - 30.2 °F 38% 30.21 in 6.2 mi ESE 5.8 mph - N/A   Unknown
8:00 PM 53.6 °F - 30.2 °F 41% 30.21 in 6.2 mi SE 6.9 mph - N/A   Unknown
8:30 PM 53 °F - 29 °F 28% 30.23 in - SE 5.8 mph - -  
8:30 PM 53.6 °F - 28.4 °F 38% 30.24 in 6.2 mi SE 5.8 mph - N/A   Unknown
9:00 PM 51 °F - 29 °F 30% 30.24 in - SSE 4.6 mph - -   Clear
9:30 PM 51 °F - 30 °F 32% 30.25 in - South 5.8 mph - -  
9:30 PM 50.0 °F - 30.2 °F 47% 30.24 in 6.2 mi South 5.8 mph - N/A   Unknown
10:00 PM 48.2 °F - 28.4 °F 46% 30.27 in 6.2 mi South 6.9 mph - N/A   Unknown
10:30 PM 46.4 °F 45.2 °F 28.4 °F 50% 30.27 in 6.2 mi South 3.5 mph - N/A   Unknown
11:00 PM 46.4 °F - 30.2 °F 53% 30.27 in 6.2 mi Calm Calm - N/A   Unknown
11:30 PM 44 °F - 27 °F 39% 30.24 in - NE 4.6 mph - -  
11:30 PM 44.6 °F 42.2 °F 26.6 °F 49% 30.24 in 6.2 mi NE 4.6 mph - N/A   Unknown